Regional Weather Roundup
Issued by NWS

Home | Current Version | Previous Version | Graphics & Text | Print | Product List | Glossary On
Versions: 1 2 3 4 5 6 7 8 9 10 11 12 13 14 15 16 17 18 19 20 21 22 23 24 25 26 27 28 29 30 31 32 33 34 35 36 37 38 39 40 41 42 43 44 45 46 47 48 49 50
000
ASUS43 KMKX 281800
RWRWI

WISCONSIN REGIONAL WEATHER ROUNDUP
NATIONAL WEATHER SERVICE MILWAUKEE/SULLIVAN WI
100 PM CDT THU JUL 28 2016

NOTE: "FAIR" INDICATES FEW OR NO CLOUDS BELOW 12,000 FEET WITH NO
SIGNIFICANT WEATHER AND/OR OBSTRUCTIONS TO VISIBILITY.

WIZ001-002-006>008-014>016-023>028-281900-
NORTHWEST WISCONSIN

CITY           SKY/WX    TMP DP  RH WIND       PRES   REMARKS
SUPERIOR ARPT  CLOUDY    66  57  72 NE12      30.10S
ASHLAND        SUNNY     70  60  70 N16       30.09S
6HR MIN TEMP:  63; 6HR MAX TEMP:  71;

HAYWARD        CLOUDY    73  55  53 NE10      30.07S
6HR MIN TEMP:  62; 6HR MAX TEMP:  73;

SIREN          CLOUDY    72  57  60 NE6       30.07S
CUMBERLAND     CLOUDY    68  54  60 N8        30.06S
RICE LAKE      CLOUDY    70  58  64 NE8       30.06S
CHETEK         CLOUDY    70  61  72 N10       30.04S
LADYSMITH      CLOUDY    71  59  66 N9        30.05F
EAU CLAIRE     CLOUDY    66  64  94 NE7       30.01S FOG
MENOMONIE      CLOUDY    68  68  99 N6        30.03S
NEW RICHMOND   CLOUDY    71  58  64 N8        30.04F
OSCEOLA        CLOUDY    70  60  70 NE12      30.07F
$$

WIZ003>005-009-010-017-018-281900-
NORTH CENTRAL WISCONSIN

CITY           SKY/WX    TMP DP  RH WIND       PRES   REMARKS
MANITOWISH WTR CLOUDY    71  57  61 NE7       30.07R
ARBOR VITAE    CLOUDY    72  57  59 E5        30.06S
WOODRUFF       CLOUDY    72  57  59 E5        30.06S
RHINELANDER    CLOUDY    73  56  54 VRB7      30.05S
6HR MIN TEMP:  60; 6HR MAX TEMP:  73;

EAGLE RIVER    PTSUNNY   72  53  50 E6        30.06R
LAND O LAKES   MOSUNNY   72  54  54 E6        30.07S
PHILLIPS       CLOUDY    70  56  60 NE8       30.05S
6HR MIN TEMP:  61; 6HR MAX TEMP:  71;

TOMAHAWK       CLOUDY    69  57  65 NE5       30.05S
MEDFORD        DRIZZLE   61  61 100 NE9       30.04S
MERRILL        CLOUDY    64  59  82 NE6       30.05S
$$

WIZ029-030-035-036-043>047-281900-
CENTRAL WISCONSIN

CITY           SKY/WX    TMP DP  RH WIND       PRES   REMARKS
WAUSAU         CLOUDY    60  58  92 NE6       30.02S
6HR MIN TEMP:  60; 6HR MAX TEMP:  62; 6HR PCP:  0.14;

MOSINEE        NOT AVBL
MARSHFIELD     CLOUDY    64  60  87 NE9       30.01S
6HR MIN TEMP:  62; 6HR MAX TEMP:  64; 6HR PCP:  0.01;

STEVENS POINT  CLOUDY    63  60  92 E9        30.02R
WAUPACA        CLOUDY    69  65  84 NE7G16    30.00R
WAUTOMA        CLOUDY    69  62  78 NE9       29.99R
6HR MIN TEMP:  64; 6HR MAX TEMP:  71;

WISC RAPIDS    LGT RAIN  66  60  81 E7        30.00F
6HR MIN TEMP:  64; 6HR MAX TEMP:  66; 6HR PCP: TRACE;

CAMP DOUGLAS   NOT AVBL
$$

WIZ011>013-019>022-031-037>040-048>050-281900-
NORTHEAST WISCONSIN

CITY           SKY/WX    TMP DP  RH WIND       PRES   REMARKS
ANTIGO         LGT RAIN  62  57  84 CALM      30.05S
SHAWANO        LGT RAIN  65  62  90 NE9       30.02S
OCONTO         CLOUDY    64  64 100 NE5       30.01S
STURGEON BAY   CLOUDY    67  61  81 NE8       30.01S
6HR MIN TEMP:  62; 6HR MAX TEMP:  67; 6HR PCP: TRACE;

GREEN BAY      CLOUDY    68  65  90 N14       30.00S
6HR MIN TEMP:  64; 6HR MAX TEMP:  69; 6HR PCP: TRACE;

MANITOWOC      NOT AVBL
APPLETON       PTSUNNY   72  61  68 NE13      29.97F
CLINTONVILLE   DRIZZLE   64  61  88 NE6       30.01S
OSHKOSH        CLOUDY    71  62  73 NE13      29.97R
6HR MIN TEMP:  66; 6HR MAX TEMP:  72; 6HR PCP:  0.04;

$$

WIZ032>034-041-042-053>061-281900-
SOUTHWEST WISCONSIN

CITY           SKY/WX    TMP DP  RH WIND       PRES   REMARKS
LA CROSSE      LGT RAIN  68  66  93 N9        29.96R FOG
6HR MIN TEMP:  68; 6HR MAX TEMP:  70; 6HR PCP:  0.05;

SPARTA         CLOUDY    67  64  90 NE10      29.96F
VIROQUA        CLOUDY    69  69 100 CALM      29.95S VSB 1/4
BOSCOBEL       CLOUDY    78  69  73 NE5       29.91S HX  80
6HR MIN TEMP:  69; 6HR MAX TEMP:  78;

PRAIRIE DU CHI CLOUDY    73  66  79 NW8       29.94R
PLATTEVILLE    MOSUNNY   81  72  73 CALM      29.91R HX  85
$$

WIZ056-057-062-063-064-067-068-281900-
SOUTH CENTRAL WISCONSIN

CITY           SKY/WX    TMP DP  RH WIND       PRES   REMARKS
REEDSBURG      CLOUDY    72  67  86 E8        29.94S
BARABOO/DELLS  CLOUDY    71  65  81 E8        29.95S
LONE ROCK      NOT AVBL
MINERAL POINT  CLOUDY    77  70  78 NE3       29.92R
MADISON        CLOUDY    74  68  81 NE10      29.93R
6HR MIN TEMP:  69; 6HR MAX TEMP:  76;

MIDDLETON      CLOUDY    75  69  80 NE9       29.93S
WATERTOWN      CLOUDY    75  71  85 NE10      29.92F
MONROE         PTSUNNY   79  70  73 NE8       29.91S HX  81
JANESVILLE     RAIN      77  73  88 N7        29.88F VSB 1
$$

WIZ051-052-058>065-066-070>072-281900-
SOUTHEAST WISCONSIN

CITY           SKY/WX    TMP DP  RH WIND       PRES   REMARKS
MILWAUKEE      PTSUNNY   77  67  71 NE14      29.92F
6HR MIN TEMP:  69; 6HR MAX TEMP:  78;

WAUKESHA       CLOUDY    73  66  78 NE12      29.94F
MILWAUKEE/TIMM CLOUDY    73  63  68 NE12      29.94F
RACINE         SUNNY     79  69  71 N12       29.92F HX  81
6HR MIN TEMP:  69; 6HR MAX TEMP:  79;

BURLINGTON     MOSUNNY   79  68  69 E8        29.90F HX  82
KENOSHA        SUNNY     82  68  62 E8        29.90F HX  85
6HR MIN TEMP:  70; 6HR MAX TEMP:  83;

FOND DU LAC    CLOUDY    73  62  68 NE12      29.96S
6HR MIN TEMP:  67; 6HR MAX TEMP:  74; 6HR PCP:  0.01;

SHEBOYGAN      CLOUDY    69  61  75 NE21      29.96F
6HR MIN TEMP:  66; 6HR MAX TEMP:  72;

WEST BEND      CLOUDY    72  63  73 E12       29.95S
JUNEAU         CLOUDY    72  65  80 E9        29.95F
$$

LSZ147-162-281900-
LAKE SUPERIOR

STATION/POSITION TIME  TEMP    WIND        PRES    WAVE
                       AIR SEA DIR/SP/G            HT/PER
                 (UTC) (F)     (DEG/KT/KT) (MB)    (FT/S)
W MID LAKE BUOY  1650   61 60   50/ 14/ 16 1018.8R   2/ 3
DEVILS ISLAND    1700   62      50/ 17/ 18 1019.3R
PORT WING        1640   62      30/ 12/ 14 1019.3R
SAXON HARBOR     1700   67      30/ 10/ 12 1018.3
$$

LMZ867-665-643>646-281900-
LAKE MICHIGAN

STATION/POSITION TIME  TEMP    WIND        PRES    WAVE
                       AIR SEA DIR/SP/G            HT/PER
                 (UTC) (F)     (DEG/KT/KT) (MB)    (FT/S)
CHAMBERS ISLAND  1700   68      10/ 10/ 11 1016.3S
N MID LAKE BUOY  1650   66 70   10/  8/ 10 1015.5S   1/ 3
NORTHPORT PIER   1700   71      30/  3/  6 1015.9F
SISTER BAY       1621   71      40/  4/  7   N/A
ALGOMA LAKESHORE 1713           50/ 12/ 15   N/A
KEWAUNEE LAKESHO 1700   65      20/  5/  7 1014.9F
SHEBOYGAN LAKESH 1700   61      30/ 16/ 17 1014.7F
PORT WASHINGTON  1740   71      30/ 10/ 13 1014.6F
ATWATER BUOY     1700   62 61  360/ 14/ 16 1015.1F
MILWAUKEE LAKESH 1710   70     360/ 12/ 15   N/A
S MID LAKE BUOY  1650   75 76  110/  6/  6 1012.2R   1/ 4
KENOSHA   LAKESH 1700   66      20/  7/  8 1012.9S
$$

TC  - TEMPERATURE IN CELSIUS
VSB - VISIBILITY IN STATUTE MILES
WCI - WIND CHILL INDEX
HX  - HEAT INDEX




USA.gov is the U.S. government's official web portal to all federal, state and local government web resources and services.